DW8548 Weather Reports


time (UTC)temp
C
wind
direction
speed
KPH
gust
KPH
rain 1hr
cm
rain 24hr
cm
rain mn
cm
humidity
%
barometer
mb
20260505013053 16 0 0.0 1.6 0.00 0.00 0.00 72 1026.5
20260505011557 15 0 0.0 3.2 0.00 0.00 0.00 73 1026.5
20260505010058 15 55 0.0 6.4 0.00 0.00 0.00 75 1026.5
20260505004553 14 0 0.0 3.2 0.00 0.00 0.00 77 1026.6
20260505003059 13 355 0.0 4.8 0.00 0.00 0.00 80 1026.6
20260505001553 12 0 0.0 3.2 0.00 0.00 0.00 83 1026.4
20260505000111 12 0 0.0 1.6 0.00 0.00 0.00 86 1026.3
20260504234555 10 68 0.0 1.6 0.00 0.00 0.00 88 1026.0
20260504233054 10 0 0.0 1.6 0.00 0.00 0.00 89 1025.7
20260504231555 8 0 0.0 0.0 0.00 0.00 0.00 89 1025.6
20260504230056 9 0 0.0 0.0 0.00 0.00 0.00 88 1025.4
20260504224559 9 0 0.0 0.0 0.00 0.00 0.00 87 1025.2
20260504223109 10 0 0.0 0.0 0.00 0.00 0.00 87 1025.0
20260504221558 10 0 0.0 1.6 0.00 0.00 0.00 86 1025.0
20260504220114 10 0 0.0 3.2 0.00 0.00 0.00 86 1025.0
20260504214556 11 0 0.0 4.8 0.00 0.00 0.00 86 1024.6
20260504213101 11 88 0.0 6.4 0.00 0.00 0.00 87 1024.7
20260504211556 11 104 0.0 4.8 0.00 0.00 0.00 88 1024.9
20260504210054 10 0 0.0 4.8 0.00 0.00 0.00 89 1024.9
20260504204553 10 0 0.0 3.2 0.00 0.00 0.00 89 1024.9
20260504203055 9 0 0.0 0.0 0.00 0.00 0.00 88 1024.9
20260504201645 9 0 0.0 0.0 0.00 0.00 0.00 88 1024.9
20260504200100 9 0 0.0 0.0 0.00 0.00 0.00 87 1024.9
20260504194559 9 0 0.0 0.0 0.00 0.00 0.00 87 1025.0
20260504193506 10 0 0.0 1.6 0.00 0.00 0.00 86 1025.0
20260504191601 10 0 0.0 3.2 0.00 0.00 0.00 87 1025.1
20260504190108 10 0 0.0 1.6 0.00 0.00 0.00 87 1025.1
20260504184614 10 0 0.0 0.0 0.00 0.00 0.00 86 1025.2
20260504183101 10 0 0.0 1.6 0.00 0.00 0.00 86 1025.4
20260504181553 10 0 0.0 3.2 0.00 0.00 0.00 86 1025.2
20260504180054 10 0 0.0 3.2 0.00 0.00 0.00 86 1025.3
20260504174559 10 94 0.0 3.2 0.00 0.00 0.00 86 1025.4
20260504173056 10 0 0.0 1.6 0.00 0.00 0.00 86 1025.5
20260504171557 10 0 0.0 1.6 0.00 0.00 0.00 86 1025.5
20260504090137 17 175 0.0 6.4 0.00 0.00 0.00 70 1024.9
20260504081553 18 217 3.2 11.3 0.00 0.00 0.00 66 1025.0
20260504050107 20 0 0.0 4.8 0.00 0.00 0.00 56 1025.6
20260504044602 21 0 0.0 9.7 0.00 0.00 0.00 56 1025.8
20260504043058 20 163 1.6 6.4 0.00 0.00 0.00 58 1025.9
20260504041554 20 93 1.6 4.8 0.00 0.00 0.00 59 1026.2
20260504040106 20 75 0.0 9.7 0.00 0.00 0.00 59 1026.5
20260504034600 19 0 0.0 1.6 0.00 0.00 0.00 60 1026.8
20260504033126 18 0 0.0 4.8 0.00 0.00 0.00 61 1027.0
20260504031558 18 75 0.0 4.8 0.00 0.00 0.00 64 1027.1
20260504030101 18 0 0.0 3.2 0.00 0.00 0.00 66 1027.3
20260504024559 17 78 0.0 4.8 0.00 0.00 0.00 66 1027.5
20260504023102 17 0 0.0 4.8 0.00 0.00 0.00 68 1027.4
20260504021556 17 114 1.6 6.4 0.00 0.00 0.00 70 1027.3
20260504020100 17 0 1.6 9.7 0.00 0.00 0.00 69 1027.4
20260504014558 16 0 1.6 8.0 0.00 0.00 0.00 70 1027.5